Location: Mercogliano
(40.9167°N, 14.7333°E)
Time: 04:49:54
(UTC+00:00)

Cosmos 2298 Rocket - Pass Details

Date: 18 September 2020
Orbit: 777 x 783 km, 74.0° (Epoch: 25 October)

Event Time Altitude Azimuth Distance (km) Brightness Sun altitude
Rises 18:14:10 0° 180° (S) 3,254 7.1 -13.8°
Reaches altitude 10° 18:16:38 10° 174° (S) 2,331 6.3 -14.3°
Maximum altitude 18:21:39 44° 103° (ESE) 1,068 4.3 -15.2°
Drops below altitude 10° 18:26:41 10° 32° (NNE) 2,346 6.4 -16.1°
Sets 18:29:10 0° 26° (NNE) 3,278 7.2 -16.6°
